Torna al catalogo

STARLINK-31524

AttivoComunicazioniVLEO
NORAD 59506·PAYLOAD·🇺🇸 United States

Lanciato Apr 13, 2024 da Cape Canaveral Space Force Station

Loading…

Prossimi Passaggi (prossime 24 ore)

TLE

AggiornatoSource: CelesTrak SupGP

Epoca: Sep 15, 2026, 01:50 UTC

1 59506C 24071Y   26258.07687500  .00030536  00000+0  11057-2 0  2585
2 59506  43.0017 343.2440 0001607 264.1098 248.7867 15.27571390    19

Traccia STARLINK-31524 in tempo reale con AllMySat

Download on the App Store